Flag for Japan Weather past 2 weeks in Suzuka, Japan

Now
70 °F

Mild.


Feels Like: 70 °F
Forecast: 67 / 77 °F
Wind: 7 mph from South

Location: Tsu

Current Time: Jul 6, 2015 at 1:07:16 AM

Latest Report: Jul 6, 2015 at 12:00 AM


Visibility: N/A

Pressure: 29.87 "Hg

Humidity: 91%

Dew point: 67 °F

Location of SuzukaLocation

Historic Weather in Suzuka — Graph

°F

Suzuka temperature yesterday

Maximum temperature yesterday: 72 °F (at 2:00 PM)
Minimum temperature yesterday: 67 °F (at 4:00 AM)
Average temperature yesterday: 70 °F

Past Weeks' High & Low Weather Summary

 TemperatureHumidityPressure
High81 °F (Jun 23, 5:00 PM)97% (Jun 26, 11:00 PM)29.94 "Hg (Jun 26, 11:00 PM)
Low65 °F (Jun 29, 5:00 AM)50% (Jun 28, 1:00 PM)29.26 "Hg (Jul 1, 11:00 AM)
Average73 °F81%29.73 "Hg
* Reported Jun 20 11:00 PM — Jul 5 11:00 PM, Suzuka, Weather by CustomWeather, © 2015

Note: Actual official high and low records may vary slightly from our data, if they occured in-between our weather recording intervals... More about our weather records

Advertising

Suzuka weather history for previous 24 hours

 ConditionsComfort  
Time TempWeatherWind HumidityBarometerVisibility
11:00 PM
Sun, Jul 5
70 °FMild.3 mph89%29.88 "HgN/A
10:00 PM71 °FMild.5 mph88%29.88 "HgN/A
9:00 PM71 °FOvercast.5 mph88%29.88 "Hg6 mi
8:00 PM71 °FMild.5 mph86%29.87 "HgN/A
7:00 PM71 °FMild.7 mph85%29.86 "HgN/A
6:00 PM71 °FMild.7 mph84%29.85 "HgN/A
5:00 PM72 °FMild.8 mph80%29.84 "HgN/A
4:00 PM72 °FMild.8 mph77%29.84 "HgN/A
3:00 PM72 °FOvercast.8 mph80%29.84 "Hg9 mi
2:00 PM72 °FMild.7 mph81%29.84 "HgN/A
1:00 PM72 °FMild.5 mph85%29.85 "HgN/A
11:00 AM71 °FMild.5 mph85%29.85 "HgN/A
10:00 AM69 °FMild.5 mph91%29.84 "HgN/A
9:00 AM69 °FLight rain. Overcast.5 mph93%29.85 "Hg4 mi
8:00 AM69 °FMild.3 mph92%29.86 "HgN/A
7:00 AM68 °FMild.5 mph93%29.86 "HgN/A
6:00 AM67 °FMild.3 mph94%29.87 "HgN/A
5:00 AM67 °FMild.2 mph95%29.86 "HgN/A
4:00 AM67 °FMild.2 mph95%29.85 "HgN/A
3:00 AM67 °FMild.3 mph94%29.86 "HgN/A
2:00 AM68 °FMild.2 mph93%29.85 "HgN/A
1:00 AM68 °FMild.2 mph92%29.87 "HgN/A
Weather by CustomWeather, © 2015

See weather overviewHow to use our weather pages